This is the latest recevied weather packets stored in our database for station/object K7DC. If no packets are shown the sender has not sent any weather packets the latest 10 day(s).
| Time | Temp. | Humidity | Pressure | Rain* | Wind** | Luminosity | Snow |
|---|---|---|---|---|---|---|---|
| 1777057118 | 30.56° C | 12% | 1011.3 hPa | 0 mm | - | 927 W/m² | - |
| 1777056814 | 30.56° C | 12% | 1011.7 hPa | 0 mm | - | 924 W/m² | - |
| 1777056509 | 31.11° C | 13% | 1011.7 hPa | 0 mm | - | 925 W/m² | - |
| 1777056204 | 31.11° C | 13% | 1011.8 hPa | 0 mm | - | 922 W/m² | - |
| 1777055901 | 30° C | 14% | 1011.8 hPa | 0 mm | - | 916 W/m² | - |
| 1777055598 | 30.56° C | 14% | 1011.8 hPa | 0 mm | - | 913 W/m² | - |
| 1777055298 | 30.56° C | 15% | 1012.1 hPa | 0 mm | - | 919 W/m² | - |
| 1777054997 | 30.56° C | 14% | 1011.9 hPa | 0 mm | - | 902 W/m² | - |
| 1777054693 | 31.11° C | 15% | 1011.9 hPa | 0 mm | - | 897 W/m² | - |
| 1777054390 | 30° C | 14% | 1012.2 hPa | 0 mm | - | 891 W/m² | - |
| 1777054089 | 28.89° C | 15% | 1012.2 hPa | 0 mm | - | 884 W/m² | - |
| 1777053784 | 28.89° C | 15% | 1012.4 hPa | 0 mm | - | 877 W/m² | - |
| 1777053484 | 28.89° C | 14% | 1012.6 hPa | 0 mm | - | 829 W/m² | - |
| 1777053179 | 30° C | 12% | 1012.4 hPa | 0 mm | - | 865 W/m² | - |
| 1777052876 | 30.56° C | 12% | 1012.6 hPa | 0 mm | - | 856 W/m² | - |
| 1777052571 | 30.56° C | 12% | 1012.6 hPa | 0 mm | - | 848 W/m² | - |
| 1777052267 | 29.44° C | 13% | 1012.7 hPa | 0 mm | - | 830 W/m² | - |
| 1777051963 | 28.33° C | 12% | 1012.7 hPa | 0 mm | - | 831 W/m² | - |
| 1777051661 | 28.33° C | 14% | 1012.9 hPa | 0 mm | - | 824 W/m² | - |
| 1777051357 | 27.78° C | 14% | 1012.9 hPa | 0 mm | - | 809 W/m² | - |
| 1777051052 | 27.78° C | 15% | 1012.9 hPa | 0 mm | - | 820 W/m² | - |
| 1777050749 | 28.33° C | 15% | 1013.1 hPa | 0 mm | - | 794 W/m² | - |
| 1777050449 | 28.33° C | 13% | 1012.9 hPa | 0 mm | - | 764 W/m² | - |
| 1777050144 | 27.78° C | 16% | 1013 hPa | 0 mm | - | 775 W/m² | - |
| 1777049838 | 27.78° C | 17% | 1012.9 hPa | 0 mm | - | 754 W/m² | - |
* Rain latest hour (hover to see other rain measurements)
** Current wind speed in m/s (hover to see current wind gust speed)